Snowfall_Accumulation
0.0 0.0 0.0 0.0 0.0 0.0 0.0 0.0 0.0 0.0 0.0 0.0 0.0 0.0 0.0 0.0 0.0 0.0 0.0 0.0 0.0 0.0 0.0 0.0 0.0 0.0 0.0 0.0 0.0 0.0 0.0 0.0 0.0 0.0 0.0 0.0 0.0 0.0
0.0 0.0 0.0 0.0 0.0 0.0 0.0 0.0 0.0 0.0 0.0 0.0 0.0 0.0 0.0 0.0 0.0 0.0 0.0 0.0 0.0 0.0 0.0 0.0 0.0 0.0 0.0 0.0 0.0 0.0 0.0 0.0 0.0 0.0 0.0 0.0 0.0 0.0
0.0 0.0 0.0 0.0 0.0 0.0 0.0 0.0 0.0 0.0 0.0 0.0 0.0 0.0 0.0 0.0 0.0 0.0 0.0 0.0 0.0 0.0 0.0 0.0 0.0 0.0 0.0 0.0 0.0 0.0 0.0 0.0 0.0 0.0 0.0 0.0 0.0 0.0
0.0 0.0 0.0 0.0 0.0 0.0 0.0 0.0 0.0 0.0 0.0 0.1 0.0 0.0 0.0 0.0 0.0 0.0 0.0 0.0 0.0 0.0 0.0 0.0 0.0 0.0 0.0 0.0 0.0 0.0 0.0 0.0 0.0 0.0 0.0 0.0 0.0 0.0
0.0 0.0 0.0 0.0 0.0 0.0 0.0 0.0 0.0 0.0 0.0 0.0 0.0 0.0 0.0 0.0 0.0 0.0 0.0 0.0 0.0 0.0 0.0 0.0 0.0 0.0 0.0 0.0 0.0 0.0 0.0 0.0 0.0 0.0 0.0 0.0 0.0 0.0
0.0 0.0 0.0 0.0 0.0 0.0 0.0 0.0 0.0 0.0 0.0 0.0 0.0 0.2 0.0 0.0 0.0 0.0 0.0 0.0 0.0 0.0 0.0 0.0 0.0 0.0 0.0 0.0 0.0 0.0 0.0 0.0 0.0 0.0 0.0 0.0 0.0 0.0
0.0 0.0 0.0 0.0 0.0 0.0 0.0 0.0 0.0 0.0 0.3 1.5 0.8 0.6 0.1 0.0 0.0 0.0 0.0 0.0 0.1 0.0 0.0 0.0 0.0 0.0 0.0 0.0 0.0 0.0 0.0 0.0 0.0 0.0 0.0 0.0 0.0 0.0
0.0 0.0 0.0 0.0 0.0 0.0 0.0 0.0 0.0 0.9 1.7 1.1 1.4 0.0 0.0 0.0 0.0 0.1 0.6 0.5 0.6 0.0 0.0 0.0 0.0 0.0 0.0 0.0 0.0 0.0 0.0 0.0 0.0 0.0 0.0 0.0 0.0 0.0
0.0 0.0 0.0 0.0 0.0 0.0 0.0 0.0 0.4 0.1 0.0 0.3 0.0 0.0 0.0 0.0 0.9 0.7 0.4 1.1 0.6 0.0 0.0 0.2 0.0 0.0 0.0 0.0 0.0 0.0 0.0 0.0 0.0 0.0 0.0 0.0 0.0 0.0
0.0 0.0 0.0 0.0 0.0 0.0 0.4 0.3 0.1 0.0 0.0 0.0 0.0 0.0 0.3 0.0 0.2 0.5 0.4 0.6 0.2 0.0 0.0 0.5 0.0 0.0 0.0 0.0 0.0 0.0 0.0 0.0 0.0 0.0 0.0 0.0 0.0 0.0
0.0 0.0 0.0 0.0 0.0 0.0 0.2 0.1 0.0 0.0 0.0 0.0 0.1 0.0 0.0 0.0 0.0 0.6 0.6 1.0 0.6 0.0 0.0 0.0 0.0 0.0 0.0 0.0 0.0 0.0 0.0 0.0 0.0 0.0 0.0 0.0 0.0 0.0
0.0 0.0 0.0 0.0 0.0 0.1 0.1 0.0 0.0 0.0 0.4 0.1 0.0 0.0 0.0 0.0 0.0 0.0 0.8 3.7 1.7 1.5 0.0 1.6 0.0 0.4 2.5 0.0 0.0 0.0 0.0 0.0 0.0 0.0 0.0 0.0 0.0 0.2
0.0 0.0 0.0 0.0 0.1 0.0 0.0 0.0 0.0 0.1 0.0 0.0 0.0 0.0 0.0 0.0 0.0 0.0 0.1 2.7 5.6 3.5 0.0 3.7 4.9 0.1 2.3 0.7 0.0 0.0 0.0 0.0 0.0 0.0 0.0 0.0 0.4 0.6
0.1 0.0 0.1 0.1 0.0 0.0 0.0 0.0 0.1 0.0 0.0 0.0 0.0 0.0 0.0 0.0 0.0 0.0 0.0 0.2 0.5 3.2 0.9 1.4 7.4 2.7 4.6 2.3 0.0 0.0 0.0 0.0 0.0 0.0 0.1 0.6 0.8 0.8
0.0 0.0 0.0 0.0 0.0 0.0 0.0 0.0 0.0 0.0 0.0 0.1 0.0 0.0 0.0 0.0 0.0 0.0 0.0 0.0 0.0 0.0 0.2 0.2 2.0 2.5 3.8 4.2 2.3 0.2 0.8 0.0 0.0 1.0 1.5 2.1 2.2 2.2
0.0 0.0 0.0 0.0 0.0 0.0 0.0 0.0 0.0 0.0 0.1 0.4 0.1 0.0 0.0 0.0 0.0 0.0 0.3 0.0 0.7 0.0 0.0 0.0 0.4 2.1 3.9 1.4 3.2 2.3 0.7 2.4 0.8 0.7 1.5 1.0 0.9 1.3
0.0 0.0 0.0 0.0 0.0 0.0 0.0 0.0 0.0 0.0 0.0 0.0 0.2 0.2 0.0 0.0 0.0 0.0 0.2 0.8 1.2 0.3 0.2 0.0 0.0 0.2 0.2 1.0 2.3 1.0 0.8 0.9 1.6 2.2 1.9 1.6 0.4 1.0
0.0 0.0 0.0 0.0 0.0 0.0 0.0 0.0 0.0 0.0 0.0 0.1 0.1 0.0 0.7 0.3 0.5 0.2 0.0 0.4 1.4 0.3 0.4 0.1 0.1 0.3 0.0 0.0 0.6 2.0 1.6 1.8 1.4 1.5 1.4 3.3 1.7 0.3
0.0 0.0 0.0 0.0 0.0 0.0 0.0 0.2 0.2 0.0 0.1 0.4 0.6 0.6 1.7 1.1 0.0 0.3 0.1 0.2 0.3 0.2 0.3 0.4 1.3 2.7 3.0 0.6 0.2 0.7 4.9 2.9 1.4 1.5 1.9 3.1 4.7 2.8
0.0 0.0 0.0 0.0 0.0 0.2 0.2 0.4 0.3 0.0 0.0 0.0 0.8 1.7 1.9 2.2 1.0 1.1 0.7 1.7 2.2 0.9 0.8 0.2 0.4 2.6 6.5 5.6 3.6 0.7 1.0 3.2 4.7 4.5 3.4 2.5 3.8 0.8
0.0 0.0 0.0 0.0 0.2 0.2 0.2 0.4 0.3 0.8 1.1 1.7 1.1 1.8 1.9 3.2 1.7 0.4 1.0 0.0 0.8 0.8 1.2 0.3 0.4 0.4 0.7 0.7 1.1 0.0 0.2 0.5 1.2 5.7 4.8 4.1 2.6 0.7
0.0 0.0 0.0 0.0 0.2 0.3 0.5 0.5 0.4 0.0 0.5 0.9 1.2 2.0 2.1 2.5 3.4 2.3 1.4 2.1 0.9 0.5 1.0 0.3 0.2 0.5 0.4 1.2 1.0 0.1 0.2 0.0 0.3 0.5 0.8 3.2 8.2 10.6
0.0 0.0 0.0 0.1 0.1 0.4 0.6 0.6 0.4 0.3 0.8 1.9 1.8 2.1 2.6 3.1 1.6 1.6 1.6 1.4 1.7 1.7 0.7 0.5 0.1 0.0 0.0 0.2 0.6 0.4 0.0 0.3 0.2 0.9 1.2 0.8 1.2 1.6